Tabellarische Ansicht des 15.11.2019


Die einzelnen Werte des Tages

Uhrzeit Temperatur Luftdruck Luftfeuchte Wind Hi-Wind Taupunkt THW Index Wind Chill Heat Index Solar- strahlung Regen

00:00

3.3 C

1002.4 hpa

87 %

9.7 km/h aus 116

20.9 km/h aus NE

1.4 C

0.7 C

0.8 C

3.2 C

0 W/m

0.00 mm

00:05

3.4 C

1002.4 hpa

87 %

11.3 km/h aus 116

20.9 km/h aus NNE

1.4 C

0.3 C

0.4 C

3.3 C

0 W/m

0.00 mm

00:10

3.3 C

1002.4 hpa

87 %

9.7 km/h aus 113

19.3 km/h aus NNE

1.4 C

0.7 C

0.8 C

3.2 C

0 W/m

0.00 mm

00:15

3.3 C

1002.1 hpa

87 %

9.7 km/h aus 114

19.3 km/h aus NE

1.4 C

0.7 C

0.8 C

3.2 C

0 W/m

0.00 mm

00:20

3.3 C

1002.1 hpa

87 %

9.7 km/h aus 115

19.3 km/h aus NE

1.3 C

0.6 C

0.7 C

3.2 C

0 W/m

0.00 mm

00:25

3.2 C

1002.1 hpa

87 %

11.3 km/h aus 117

25.7 km/h aus NNE

1.3 C

0.2 C

0.3 C

3.1 C

0 W/m

0.00 mm

00:30

3.2 C

1001.9 hpa

88 %

14.5 km/h aus 117

24.1 km/h aus NE

1.4 C

-0.4 C

-0.3 C

3.2 C

0 W/m

0.00 mm

00:35

3.2 C

1001.9 hpa

88 %

12.9 km/h aus 116

24.1 km/h aus NE

1.4 C

-0.1 C

-0.1 C

3.2 C

0 W/m

0.00 mm

00:40

3.2 C

1001.9 hpa

88 %

14.5 km/h aus 117

25.7 km/h aus N

1.4 C

-0.4 C

-0.4 C

3.1 C

0 W/m

0.00 mm

00:45

3.1 C

1002.0 hpa

88 %

11.3 km/h aus 116

22.5 km/h aus NE

1.3 C

0.1 C

0.1 C

3.1 C

0 W/m

0.00 mm

00:50

3.1 C

1002.0 hpa

88 %

9.7 km/h aus 114

20.9 km/h aus NNE

1.3 C

0.4 C

0.5 C

3.1 C

0 W/m

0.00 mm

00:55

3.1 C

1002.0 hpa

88 %

11.3 km/h aus 116

24.1 km/h aus NNE

1.3 C

0.1 C

0.1 C

3.1 C

0 W/m

0.00 mm

01:00

3.2 C

1002.0 hpa

89 %

11.3 km/h aus 116

27.4 km/h aus NNE

1.5 C

0.2 C

0.2 C

3.1 C

0 W/m

0.00 mm

01:05

3.2 C

1002.0 hpa

89 %

9.7 km/h aus 117

24.1 km/h aus NNE

1.5 C

0.5 C

0.6 C

3.1 C

0 W/m

0.00 mm

01:10

3.2 C

1002.0 hpa

89 %

6.4 km/h aus 117

19.3 km/h aus NE

1.5 C

1.4 C

1.5 C

3.1 C

0 W/m

0.00 mm

01:15

3.2 C

1002.0 hpa

89 %

9.7 km/h aus 117

19.3 km/h aus NE

1.6 C

0.6 C

0.6 C

3.2 C

0 W/m

0.00 mm

01:20

3.3 C

1002.0 hpa

89 %

8.0 km/h aus 115

20.9 km/h aus NNE

1.6 C

1.1 C

1.1 C

3.2 C

0 W/m

0.00 mm

01:25

3.3 C

1002.0 hpa

89 %

6.4 km/h aus 114

25.7 km/h aus NE

1.6 C

1.6 C

1.6 C

3.2 C

0 W/m

0.00 mm

01:30

3.3 C

1002.0 hpa

89 %

8.0 km/h aus 117

19.3 km/h aus NNE

1.7 C

1.1 C

1.2 C

3.3 C

0 W/m

0.00 mm

01:35

3.4 C

1002.0 hpa

90 %

6.4 km/h aus 117

16.1 km/h aus ENE

1.9 C

1.7 C

1.7 C

3.3 C

0 W/m

0.00 mm

01:40

3.4 C

1002.0 hpa

90 %

6.4 km/h aus 117

14.5 km/h aus NE

2.0 C

1.7 C

1.8 C

3.4 C

0 W/m

0.00 mm

01:45

3.5 C

1002.0 hpa

90 %

8.0 km/h aus 117

17.7 km/h aus NNE

2.0 C

1.3 C

1.4 C

3.4 C

0 W/m

0.00 mm

01:50

3.6 C

1002.0 hpa

90 %

6.4 km/h aus 117

17.7 km/h aus ENE

2.1 C

1.9 C

1.9 C

3.5 C

0 W/m

0.00 mm

01:55

3.6 C

1002.0 hpa

90 %

8.0 km/h aus 115

17.7 km/h aus NE

2.1 C

1.4 C

1.5 C

3.6 C

0 W/m

0.00 mm

02:00

3.6 C

1001.7 hpa

89 %

9.7 km/h aus 114

17.7 km/h aus N

2.0 C

1.1 C

1.1 C

3.6 C

0 W/m

0.00 mm

02:05

3.7 C

1001.7 hpa

89 %

9.7 km/h aus 116

20.9 km/h aus NE

2.0 C

1.1 C

1.2 C

3.6 C

0 W/m

0.00 mm

02:10

3.7 C

1001.7 hpa

89 %

8.0 km/h aus 117

17.7 km/h aus NE

2.0 C

1.5 C

1.6 C

3.6 C

0 W/m

0.00 mm

02:15

3.7 C

1002.0 hpa

89 %

9.7 km/h aus 117

20.9 km/h aus NE

2.1 C

1.2 C

1.2 C

3.7 C

0 W/m

0.00 mm

02:20

3.8 C

1002.0 hpa

89 %

11.3 km/h aus 117

24.1 km/h aus NE

2.1 C

0.9 C

0.9 C

3.7 C

0 W/m

0.00 mm

02:25

3.8 C

1002.0 hpa

89 %

14.5 km/h aus 116

24.1 km/h aus NE

2.1 C

0.3 C

0.3 C

3.7 C

0 W/m

0.00 mm

02:30

3.8 C

1002.1 hpa

89 %

11.3 km/h aus 113

25.7 km/h aus NNE

2.2 C

0.9 C

1.0 C

3.8 C

0 W/m

0.00 mm

02:35

3.8 C

1002.1 hpa

89 %

9.7 km/h aus 115

24.1 km/h aus NE

2.2 C

1.3 C

1.3 C

3.8 C

0 W/m

0.00 mm

02:40

3.9 C

1002.1 hpa

89 %

12.9 km/h aus 115

24.1 km/h aus NE

2.2 C

0.7 C

0.8 C

3.8 C

0 W/m

0.00 mm

02:45

3.9 C

1001.7 hpa

88 %

12.9 km/h aus 116

24.1 km/h aus NE

2.1 C

0.7 C

0.8 C

3.8 C

0 W/m

0.00 mm

02:50

3.9 C

1001.7 hpa

88 %

11.3 km/h aus 117

20.9 km/h aus NE

2.1 C

1.0 C

1.1 C

3.8 C

0 W/m

0.00 mm

02:55

3.9 C

1001.7 hpa

88 %

12.9 km/h aus 118

22.5 km/h aus NE

2.1 C

0.8 C

0.8 C

3.9 C

0 W/m

0.00 mm

03:00

3.9 C

1001.4 hpa

88 %

14.5 km/h aus 114

25.7 km/h aus NE

2.1 C

0.5 C

0.6 C

3.9 C

0 W/m

0.00 mm

03:05

3.9 C

1001.4 hpa

88 %

14.5 km/h aus 115

27.4 km/h aus NNE

2.1 C

0.5 C

0.6 C

3.9 C

0 W/m

0.00 mm

03:10

4.0 C

1001.4 hpa

88 %

12.9 km/h aus 115

22.5 km/h aus NE

2.2 C

0.8 C

0.9 C

3.9 C

0 W/m

0.00 mm

03:15

4.0 C

1001.1 hpa

88 %

12.9 km/h aus 117

30.6 km/h aus ENE

2.2 C

0.8 C

0.9 C

3.9 C

0 W/m

0.00 mm

03:20

4.0 C

1001.1 hpa

88 %

17.7 km/h aus 116

33.8 km/h aus NNE

2.2 C

0.1 C

0.1 C

3.9 C

0 W/m

0.00 mm

03:25

4.1 C

1001.1 hpa

87 %

16.1 km/h aus 116

32.2 km/h aus ENE

2.1 C

0.3 C

0.4 C

3.9 C

0 W/m

0.00 mm

03:30

4.1 C

1001.0 hpa

87 %

14.5 km/h aus 117

29.0 km/h aus NE

2.1 C

0.6 C

0.7 C

3.9 C

0 W/m

0.00 mm

03:35

4.1 C

1001.0 hpa

87 %

12.9 km/h aus 115

27.4 km/h aus NE

2.1 C

0.8 C

0.9 C

3.9 C

0 W/m

0.00 mm

03:40

4.1 C

1001.0 hpa

87 %

14.5 km/h aus 113

25.7 km/h aus ENE

2.1 C

0.6 C

0.7 C

3.9 C

0 W/m

0.00 mm

03:45

4.1 C

1000.8 hpa

87 %

12.9 km/h aus 117

29.0 km/h aus SE

2.1 C

0.8 C

0.9 C

3.9 C

0 W/m

0.00 mm

03:50

4.1 C

1000.8 hpa

87 %

14.5 km/h aus 116

29.0 km/h aus NNE

2.1 C

0.6 C

0.7 C

3.9 C

0 W/m

0.00 mm

03:55

4.1 C

1000.8 hpa

87 %

14.5 km/h aus 117

27.4 km/h aus ENE

2.1 C

0.6 C

0.7 C

3.9 C

0 W/m

0.00 mm

04:00

4.1 C

1000.9 hpa

87 %

11.3 km/h aus 117

20.9 km/h aus NE

2.1 C

1.2 C

1.3 C

3.9 C

0 W/m

0.00 mm

04:05

4.1 C

1000.9 hpa

87 %

12.9 km/h aus 116

25.7 km/h aus E

2.1 C

0.8 C

0.9 C

3.9 C

0 W/m

0.00 mm

04:10

4.1 C

1000.9 hpa

87 %

12.9 km/h aus 113

27.4 km/h aus E

2.1 C

0.8 C

0.9 C

3.9 C

0 W/m

0.00 mm

04:15

4.1 C

1000.9 hpa

87 %

16.1 km/h aus 115

32.2 km/h aus NE

2.1 C

0.4 C

0.5 C

4.0 C

0 W/m

0.00 mm

04:20

4.1 C

1000.9 hpa

87 %

17.7 km/h aus 117

35.4 km/h aus ENE

2.1 C

0.2 C

0.3 C

4.0 C

0 W/m

0.00 mm

04:25

4.1 C

1000.9 hpa

87 %

12.9 km/h aus 117

27.4 km/h aus ENE

2.1 C

0.9 C

1.1 C

4.0 C

0 W/m

0.00 mm

04:30

4.2 C

1000.5 hpa

87 %

14.5 km/h aus 117

33.8 km/h aus SE

2.2 C

0.7 C

0.8 C

4.1 C

0 W/m

0.00 mm

04:35

4.2 C

1000.5 hpa

86 %

17.7 km/h aus 117

32.2 km/h aus E

2.0 C

0.2 C

0.3 C

4.1 C

0 W/m

0.00 mm

04:40

4.2 C

1000.5 hpa

86 %

9.7 km/h aus 116

20.9 km/h aus NE

2.1 C

1.7 C

1.8 C

4.1 C

0 W/m

0.00 mm

04:45

4.2 C

1000.0 hpa

86 %

12.9 km/h aus 114

25.7 km/h aus NE

2.1 C

1.1 C

1.2 C

4.1 C

0 W/m

0.00 mm

04:50

4.2 C

1000.0 hpa

86 %

11.3 km/h aus 116

20.9 km/h aus NE

2.1 C

1.4 C

1.5 C

4.1 C

0 W/m

0.00 mm

04:55

4.3 C

1000.0 hpa

86 %

12.9 km/h aus 117

29.0 km/h aus NNE

2.1 C

1.1 C

1.2 C

4.2 C

0 W/m

0.00 mm

05:00

4.3 C

999.9 hpa

86 %

14.5 km/h aus 117

22.5 km/h aus ENE

2.1 C

0.8 C

0.9 C

4.2 C

0 W/m

0.00 mm

05:05

4.3 C

999.9 hpa

86 %

14.5 km/h aus 118

30.6 km/h aus NNE

2.1 C

0.8 C

0.9 C

4.2 C

0 W/m

0.00 mm

05:10

4.3 C

999.9 hpa

87 %

17.7 km/h aus 117

25.7 km/h aus ENE

2.4 C

0.4 C

0.6 C

4.2 C

0 W/m

0.00 mm

05:15

4.3 C

999.8 hpa

87 %

14.5 km/h aus 113

25.7 km/h aus ENE

2.4 C

0.9 C

1.0 C

4.2 C

0 W/m

0.00 mm

05:20

4.3 C

999.8 hpa

87 %

16.1 km/h aus 114

30.6 km/h aus ENE

2.4 C

0.7 C

0.8 C

4.2 C

0 W/m

0.00 mm

05:25

4.3 C

999.8 hpa

87 %

14.5 km/h aus 116

25.7 km/h aus NE

2.4 C

0.9 C

1.0 C

4.2 C

0 W/m

0.00 mm

05:30

4.3 C

1000.0 hpa

87 %

11.3 km/h aus 117

27.4 km/h aus NNE

2.4 C

1.5 C

1.6 C

4.2 C

0 W/m

0.00 mm

05:35

4.3 C

1000.0 hpa

87 %

11.3 km/h aus 115

25.7 km/h aus N

2.4 C

1.5 C

1.6 C

4.2 C

0 W/m

0.00 mm

05:40

4.3 C

1000.0 hpa

87 %

14.5 km/h aus 117

25.7 km/h aus E

2.4 C

0.9 C

1.0 C

4.2 C

0 W/m

0.00 mm

05:45

4.4 C

999.9 hpa

87 %

14.5 km/h aus 115

25.7 km/h aus ENE

2.4 C

1.0 C

1.1 C

4.3 C

0 W/m

0.00 mm

05:50

4.4 C

999.9 hpa

87 %

16.1 km/h aus 114

29.0 km/h aus NE

2.4 C

0.7 C

0.8 C

4.3 C

0 W/m

0.00 mm

05:55

4.4 C

999.9 hpa

87 %

14.5 km/h aus 116

27.4 km/h aus NE

2.4 C

1.0 C

1.1 C

4.3 C

0 W/m

0.00 mm

06:00

4.4 C

999.9 hpa

87 %

16.1 km/h aus 117

29.0 km/h aus ENE

2.4 C

0.7 C

0.8 C

4.3 C

0 W/m

0.00 mm

06:05

4.4 C

999.9 hpa

87 %

14.5 km/h aus 116

27.4 km/h aus NE

2.4 C

1.0 C

1.1 C

4.3 C

0 W/m

0.00 mm

06:10

4.4 C

999.9 hpa

88 %

9.7 km/h aus 118

20.9 km/h aus ENE

2.6 C

1.9 C

2.0 C

4.3 C

0 W/m

0.00 mm

06:15

4.4 C

999.9 hpa

88 %

12.9 km/h aus 117

24.1 km/h aus NNE

2.6 C

1.3 C

1.4 C

4.3 C

0 W/m

0.00 mm

06:20

4.4 C

999.9 hpa

88 %

16.1 km/h aus 115

30.6 km/h aus ENE

2.6 C

0.8 C

0.8 C

4.3 C

0 W/m

0.00 mm

06:25

4.4 C

999.9 hpa

88 %

16.1 km/h aus 113

29.0 km/h aus ENE

2.6 C

0.8 C

0.8 C

4.3 C

0 W/m

0.00 mm

06:30

4.3 C

999.7 hpa

88 %

14.5 km/h aus 115

30.6 km/h aus NE

2.5 C

0.9 C

1.0 C

4.3 C

0 W/m

0.00 mm

06:35

4.3 C

999.7 hpa

88 %

16.1 km/h aus 117

27.4 km/h aus NNE

2.5 C

0.7 C

0.8 C

4.3 C

0 W/m

0.00 mm

06:40

4.3 C

999.7 hpa

88 %

12.9 km/h aus 115

25.7 km/h aus NE

2.5 C

1.2 C

1.3 C

4.3 C

0 W/m

0.00 mm

06:45

4.3 C

999.7 hpa

88 %

9.7 km/h aus 117

20.9 km/h aus N

2.5 C

1.9 C

1.9 C

4.3 C

0 W/m

0.00 mm

06:50

4.3 C

999.7 hpa

88 %

11.3 km/h aus 116

24.1 km/h aus NE

2.5 C

1.6 C

1.6 C

4.3 C

0 W/m

0.00 mm

06:55

4.3 C

999.7 hpa

88 %

14.5 km/h aus 113

27.4 km/h aus NE

2.5 C

0.9 C

0.9 C

4.2 C

0 W/m

0.00 mm

07:00

4.3 C

999.6 hpa

88 %

14.5 km/h aus 115

27.4 km/h aus NNE

2.5 C

0.9 C

0.9 C

4.2 C

0 W/m

0.00 mm

07:05

4.3 C

999.6 hpa

88 %

11.3 km/h aus 116

27.4 km/h aus ENE

2.5 C

1.5 C

1.6 C

4.2 C

0 W/m

0.00 mm

07:10

4.2 C

999.6 hpa

88 %

8.0 km/h aus 115

22.5 km/h aus NE

2.4 C

2.2 C

2.2 C

4.2 C

0 W/m

0.00 mm

07:15

4.2 C

999.4 hpa

88 %

9.7 km/h aus 117

24.1 km/h aus ENE

2.4 C

1.8 C

1.8 C

4.2 C

0 W/m

0.00 mm

07:20

4.2 C

999.4 hpa

88 %

14.5 km/h aus 117

32.2 km/h aus NE

2.4 C

0.8 C

0.8 C

4.1 C

0 W/m

0.00 mm

07:25

4.2 C

999.4 hpa

88 %

16.1 km/h aus 113

29.0 km/h aus NNE

2.4 C

0.5 C

0.6 C

4.1 C

0 W/m

0.00 mm

07:30

4.2 C

999.5 hpa

88 %

12.9 km/h aus 114

30.6 km/h aus ENE

2.4 C

1.1 C

1.1 C

4.1 C

0 W/m

0.00 mm

07:35

4.2 C

999.5 hpa

88 %

12.9 km/h aus 113

25.7 km/h aus NE

2.4 C

1.1 C

1.1 C

4.1 C

0 W/m

0.00 mm

07:40

4.2 C

999.5 hpa

88 %

11.3 km/h aus 117

27.4 km/h aus NNE

2.4 C

1.3 C

1.4 C

4.1 C

0 W/m

0.00 mm

07:45

4.1 C

999.4 hpa

88 %

11.3 km/h aus 117

22.5 km/h aus ENE

2.3 C

1.3 C

1.3 C

4.1 C

0 W/m

0.00 mm

07:50

4.1 C

999.4 hpa

89 %

14.5 km/h aus 117

25.7 km/h aus NNE

2.4 C

0.6 C

0.7 C

4.0 C

0 W/m

0.00 mm

07:55

4.1 C

999.4 hpa

89 %

11.3 km/h aus 117

24.1 km/h aus NNE

2.4 C

1.2 C

1.3 C

4.0 C

0 W/m

0.00 mm

08:00

4.1 C

999.5 hpa

89 %

12.9 km/h aus 114

27.4 km/h aus NNE

2.4 C

0.9 C

0.9 C

4.0 C

0 W/m

0.00 mm

08:05

4.1 C

999.5 hpa

89 %

20.9 km/h aus 113

37.0 km/h aus ENE

2.4 C

-0.3 C

-0.2 C

4.0 C

0 W/m

0.00 mm

08:10

4.1 C

999.5 hpa

89 %

14.5 km/h aus 117

29.0 km/h aus ENE

2.4 C

0.6 C

0.7 C

4.0 C

0 W/m

0.00 mm

08:15

4.1 C

999.2 hpa

89 %

16.1 km/h aus 117

32.2 km/h aus NE

2.4 C

0.4 C

0.4 C

4.0 C

5 W/m

0.00 mm

08:20

4.0 C

999.2 hpa

89 %

14.5 km/h aus 118

25.7 km/h aus NNE

2.4 C

0.6 C

0.6 C

3.9 C

5 W/m

0.00 mm

08:25

4.0 C

999.2 hpa

89 %

12.9 km/h aus 116

25.7 km/h aus ENE

2.4 C

0.8 C

0.9 C

3.9 C

5 W/m

0.00 mm

08:30

4.0 C

999.5 hpa

89 %

11.3 km/h aus 116

25.7 km/h aus ENE

2.4 C

1.2 C

1.2 C

3.9 C

6 W/m

0.00 mm

08:35

4.0 C

999.5 hpa

89 %

8.0 km/h aus 114

20.9 km/h aus NNE

2.4 C

1.9 C

1.9 C

3.9 C

5 W/m

0.00 mm

08:40

4.0 C

999.5 hpa

89 %

11.3 km/h aus 116

24.1 km/h aus ENE

2.4 C

1.2 C

1.2 C

3.9 C

6 W/m

0.00 mm

08:45

4.0 C

999.5 hpa

90 %

11.3 km/h aus 116

19.3 km/h aus ENE

2.5 C

1.2 C

1.2 C

3.9 C

7 W/m

0.00 mm

08:50

4.0 C

999.5 hpa

90 %

12.9 km/h aus 117

25.7 km/h aus NE

2.5 C

0.8 C

0.9 C

3.9 C

9 W/m

0.00 mm

08:55

4.1 C

999.5 hpa

90 %

8.0 km/h aus 117

25.7 km/h aus NE

2.6 C

2.0 C

2.1 C

4.0 C

10 W/m

0.00 mm

09:00

4.0 C

999.4 hpa

90 %

11.3 km/h aus 117

25.7 km/h aus NE

2.5 C

1.2 C

1.2 C

3.9 C

11 W/m

0.00 mm

09:05

4.1 C

999.4 hpa

90 %

11.3 km/h aus 116

25.7 km/h aus NNE

2.6 C

1.2 C

1.3 C

4.0 C

12 W/m

0.00 mm

09:10

4.1 C

999.4 hpa

90 %

12.9 km/h aus 114

22.5 km/h aus NE

2.6 C

0.9 C

0.9 C

4.0 C

15 W/m

0.00 mm

09:15

4.1 C

999.3 hpa

90 %

11.3 km/h aus 116

22.5 km/h aus ENE

2.6 C

1.2 C

1.3 C

4.0 C

16 W/m

0.00 mm

09:20

4.1 C

999.3 hpa

90 %

11.3 km/h aus 117

24.1 km/h aus E

2.6 C

1.3 C

1.3 C

4.1 C

15 W/m

0.00 mm

09:25

4.1 C

999.3 hpa

91 %

8.0 km/h aus 118

19.3 km/h aus NE

2.8 C

2.1 C

2.1 C

4.1 C

18 W/m

0.00 mm

09:30

4.2 C

999.3 hpa

91 %

9.7 km/h aus 116

19.3 km/h aus NE

2.8 C

1.7 C

1.8 C

4.1 C

21 W/m

0.00 mm

09:35

4.2 C

999.3 hpa

91 %

9.7 km/h aus 116

24.1 km/h aus NE

2.8 C

1.7 C

1.8 C

4.1 C

25 W/m

0.00 mm

09:40

4.2 C

999.3 hpa

91 %

4.8 km/h aus 114

17.7 km/h aus NE

2.8 C

3.2 C

3.2 C

4.1 C

32 W/m

0.00 mm

09:45

4.2 C

999.4 hpa

91 %

4.8 km/h aus 115

17.7 km/h aus ENE

2.9 C

3.2 C

3.3 C

4.2 C

37 W/m

0.00 mm

09:50

4.3 C

999.4 hpa

91 %

11.3 km/h aus 117

24.1 km/h aus NE

2.9 C

1.5 C

1.6 C

4.2 C

26 W/m

0.00 mm

09:55

4.3 C

999.4 hpa

91 %

11.3 km/h aus 117

19.3 km/h aus NE

2.9 C

1.5 C

1.6 C

4.2 C

26 W/m

0.00 mm

10:00

4.3 C

999.5 hpa

91 %

11.3 km/h aus 116

25.7 km/h aus NE

3.0 C

1.6 C

1.6 C

4.3 C

28 W/m

0.00 mm

10:05

4.3 C

999.5 hpa

91 %

11.3 km/h aus 117

20.9 km/h aus NE

3.0 C

1.6 C

1.6 C

4.3 C

32 W/m

0.00 mm

10:10

4.4 C

999.5 hpa

91 %

9.7 km/h aus 113

22.5 km/h aus NE

3.0 C

1.9 C

2.0 C

4.3 C

33 W/m

0.00 mm

10:15

4.4 C

999.4 hpa

91 %

6.4 km/h aus 115

22.5 km/h aus NE

3.1 C

2.9 C

2.9 C

4.4 C

32 W/m

0.00 mm

10:20

4.4 C

999.4 hpa

91 %

9.7 km/h aus 115

27.4 km/h aus NE

3.1 C

2.1 C

2.1 C

4.4 C

29 W/m

0.00 mm

10:25

4.5 C

999.4 hpa

91 %

8.0 km/h aus 117

19.3 km/h aus ENE

3.2 C

2.5 C

2.6 C

4.4 C

26 W/m

0.00 mm

10:30

4.5 C

999.5 hpa

91 %

11.3 km/h aus 118

20.9 km/h aus NE

3.2 C

1.7 C

1.8 C

4.4 C

23 W/m

0.00 mm

10:35

4.6 C

999.5 hpa

91 %

14.5 km/h aus 116

27.4 km/h aus ENE

3.2 C

1.2 C

1.3 C

4.5 C

33 W/m

0.00 mm

10:40

4.6 C

999.5 hpa

91 %

8.0 km/h aus 116

20.9 km/h aus NE

3.2 C

2.6 C

2.6 C

4.5 C

36 W/m

0.00 mm

10:45

4.6 C

999.5 hpa

91 %

11.3 km/h aus 115

24.1 km/h aus N

3.3 C

1.9 C

1.9 C

4.6 C

31 W/m

0.00 mm

10:50

4.6 C

999.5 hpa

91 %

8.0 km/h aus 113

19.3 km/h aus ENE

3.3 C

2.6 C

2.7 C

4.6 C

28 W/m

0.00 mm

10:55

4.7 C

999.5 hpa

91 %

8.0 km/h aus 117

17.7 km/h aus NE

3.3 C

2.7 C

2.7 C

4.6 C

35 W/m

0.00 mm

11:00

4.7 C

999.5 hpa

91 %

8.0 km/h aus 115

22.5 km/h aus ENE

3.4 C

2.8 C

2.8 C

4.7 C

39 W/m

0.00 mm

11:05

4.7 C

999.5 hpa

90 %

11.3 km/h aus 117

24.1 km/h aus N

3.2 C

2.0 C

2.1 C

4.7 C

56 W/m

0.00 mm

11:10

4.8 C

999.5 hpa

91 %

12.9 km/h aus 116

24.1 km/h aus NNE

3.5 C

1.8 C

1.9 C

4.8 C

98 W/m

0.00 mm

11:15

5.0 C

998.9 hpa

91 %

12.9 km/h aus 115

24.1 km/h aus NNE

3.7 C

2.1 C

2.1 C

4.9 C

131 W/m

0.00 mm

11:20

5.1 C

998.9 hpa

90 %

11.3 km/h aus 113

24.1 km/h aus NNE

3.6 C

2.4 C

2.4 C

5.0 C

132 W/m

0.00 mm

11:25

5.2 C

998.9 hpa

90 %

11.3 km/h aus 117

24.1 km/h aus ENE

3.7 C

2.6 C

2.7 C

5.2 C

127 W/m

0.00 mm

11:30

5.3 C

999.0 hpa

90 %

12.9 km/h aus 116

20.9 km/h aus NE

3.8 C

2.5 C

2.5 C

5.3 C

141 W/m

0.00 mm

11:35

5.3 C

999.0 hpa

89 %

16.1 km/h aus 118

29.0 km/h aus NNE

3.7 C

1.9 C

1.9 C

5.3 C

127 W/m

0.00 mm

11:40

5.4 C

999.0 hpa

89 %

12.9 km/h aus 117

24.1 km/h aus NE

3.8 C

2.6 C

2.7 C

5.4 C

132 W/m

0.00 mm

11:45

5.4 C

999.4 hpa

89 %

14.5 km/h aus 115

30.6 km/h aus NNE

3.7 C

2.2 C

2.3 C

5.3 C

69 W/m

0.00 mm

11:50

5.3 C

999.4 hpa

89 %

14.5 km/h aus 114

22.5 km/h aus NNE

3.7 C

2.2 C

2.2 C

5.3 C

75 W/m

0.00 mm

11:55

5.3 C

999.4 hpa

89 %

14.5 km/h aus 116

24.1 km/h aus ENE

3.7 C

2.2 C

2.2 C

5.3 C

54 W/m

0.00 mm

12:00

5.3 C

999.2 hpa

89 %

11.3 km/h aus 116

24.1 km/h aus NE

3.7 C

2.7 C

2.8 C

5.3 C

40 W/m

0.00 mm

12:05

5.3 C

999.2 hpa

89 %

12.9 km/h aus 117

22.5 km/h aus NE

3.7 C

2.4 C

2.5 C

5.3 C

45 W/m

0.00 mm

12:10

5.3 C

999.2 hpa

89 %

14.5 km/h aus 117

24.1 km/h aus ENE

3.7 C

2.2 C

2.2 C

5.3 C

53 W/m

0.00 mm

12:15

5.3 C

999.3 hpa

89 %

12.9 km/h aus 116

25.7 km/h aus ENE

3.7 C

2.4 C

2.5 C

5.3 C

75 W/m

0.00 mm

12:20

5.4 C

999.3 hpa

89 %

12.9 km/h aus 114

22.5 km/h aus ENE

3.8 C

2.6 C

2.7 C

5.4 C

69 W/m

0.00 mm

12:25

5.4 C

999.3 hpa

89 %

11.3 km/h aus 114

20.9 km/h aus NE

3.8 C

2.9 C

2.9 C

5.4 C

77 W/m

0.00 mm

12:30

5.5 C

999.3 hpa

89 %

9.7 km/h aus 117

20.9 km/h aus NE

3.8 C

3.3 C

3.3 C

5.5 C

68 W/m

0.00 mm

12:35

5.6 C

999.3 hpa

89 %

8.0 km/h aus 117

19.3 km/h aus ENE

3.9 C

3.8 C

3.8 C

5.6 C

42 W/m

0.00 mm

12:40

5.6 C

999.3 hpa

89 %

9.7 km/h aus 118

17.7 km/h aus ENE

3.9 C

3.4 C

3.4 C

5.6 C

34 W/m

0.00 mm

12:45

5.6 C

999.2 hpa

89 %

9.7 km/h aus 117

20.9 km/h aus NE

3.9 C

3.4 C

3.4 C

5.6 C

55 W/m

0.00 mm

12:50

5.7 C

999.2 hpa

89 %

9.7 km/h aus 114

16.1 km/h aus NNE

4.0 C

3.5 C

3.5 C

5.7 C

100 W/m

0.00 mm

12:55

5.7 C

999.2 hpa

89 %

8.0 km/h aus 115

16.1 km/h aus N

4.0 C

4.0 C

4.0 C

5.7 C

72 W/m

0.00 mm

13:00

5.8 C

999.0 hpa

89 %

6.4 km/h aus 116

14.5 km/h aus NNW

4.1 C

4.5 C

4.5 C

5.8 C

56 W/m

0.00 mm

13:05

5.8 C

999.0 hpa

89 %

8.0 km/h aus 117

16.1 km/h aus NE

4.1 C

4.1 C

4.1 C

5.8 C

64 W/m

0.00 mm

13:10

5.8 C

999.0 hpa

89 %

9.7 km/h aus 116

20.9 km/h aus NNE

4.2 C

3.7 C

3.7 C

5.8 C

64 W/m

0.00 mm

13:15

5.9 C

999.0 hpa

89 %

8.0 km/h aus 117

22.5 km/h aus NNE

4.2 C

4.2 C

4.2 C

5.9 C

71 W/m

0.00 mm

13:20

5.9 C

999.0 hpa

89 %

11.3 km/h aus 114

19.3 km/h aus NE

4.3 C

3.6 C

3.6 C

5.9 C

83 W/m

0.00 mm

13:25

6.0 C

999.0 hpa

88 %

6.4 km/h aus 115

14.5 km/h aus NE

4.2 C

4.8 C

4.8 C

6.0 C

72 W/m

0.00 mm

13:30

6.0 C

999.0 hpa

88 %

6.4 km/h aus 117

14.5 km/h aus NE

4.2 C

4.8 C

4.8 C

6.0 C

75 W/m

0.00 mm

13:35

6.1 C

999.0 hpa

89 %

9.7 km/h aus 117

22.5 km/h aus NNE

4.4 C

4.0 C

4.0 C

6.1 C

73 W/m

0.00 mm

13:40

6.1 C

999.0 hpa

88 %

12.9 km/h aus 117

22.5 km/h aus NE

4.3 C

3.4 C

3.4 C

6.1 C

61 W/m

0.00 mm

13:45

6.2 C

999.4 hpa

88 %

9.7 km/h aus 118

19.3 km/h aus ENE

4.3 C

4.1 C

4.1 C

6.2 C

50 W/m

0.00 mm

13:50

6.2 C

999.4 hpa

88 %

9.7 km/h aus 114

17.7 km/h aus ENE

4.3 C

4.1 C

4.1 C

6.2 C

33 W/m

0.00 mm

13:55

6.2 C

999.4 hpa

88 %

8.0 km/h aus 114

19.3 km/h aus E

4.3 C

4.5 C

4.5 C

6.2 C

39 W/m

0.00 mm

14:00

6.2 C

999.9 hpa

88 %

9.7 km/h aus 117

19.3 km/h aus ENE

4.4 C

4.2 C

4.2 C

6.2 C

36 W/m

0.00 mm

14:05

6.2 C

999.9 hpa

88 %

8.0 km/h aus 117

20.9 km/h aus NE

4.4 C

4.6 C

4.6 C

6.2 C

38 W/m

0.00 mm

14:10

6.2 C

999.9 hpa

88 %

6.4 km/h aus 117

11.3 km/h aus NE

4.4 C

5.0 C

5.0 C

6.2 C

46 W/m

0.00 mm

14:15

6.3 C

999.4 hpa

88 %

4.8 km/h aus 117

9.7 km/h aus E

4.4 C

5.6 C

5.6 C

6.3 C

46 W/m

0.00 mm

14:20

6.3 C

999.4 hpa

88 %

4.8 km/h aus 114

9.7 km/h aus NE

4.4 C

5.6 C

5.6 C

6.3 C

44 W/m

0.00 mm

14:25

6.3 C

999.4 hpa

88 %

3.2 km/h aus 114

9.7 km/h aus NE

4.5 C

6.3 C

6.3 C

6.3 C

45 W/m

0.00 mm

14:30

6.3 C

999.0 hpa

88 %

4.8 km/h aus 117

11.3 km/h aus NNE

4.5 C

5.7 C

5.7 C

6.3 C

48 W/m

0.00 mm

14:35

6.4 C

999.0 hpa

88 %

4.8 km/h aus 117

8.0 km/h aus NNE

4.5 C

5.7 C

5.7 C

6.4 C

59 W/m

0.00 mm

14:40

6.4 C

999.0 hpa

87 %

4.8 km/h aus 117

8.0 km/h aus NNE

4.4 C

5.7 C

5.7 C

6.4 C

61 W/m

0.00 mm

14:45

6.4 C

999.4 hpa

87 %

4.8 km/h aus 116

9.7 km/h aus NE

4.4 C

5.8 C

5.8 C

6.4 C

41 W/m

0.00 mm

14:50

6.4 C

999.4 hpa

87 %

6.4 km/h aus 116

14.5 km/h aus ENE

4.4 C

5.3 C

5.3 C

6.4 C

32 W/m

0.00 mm

14:55

6.4 C

999.4 hpa

87 %

4.8 km/h aus 114

9.7 km/h aus NE

4.4 C

5.8 C

5.8 C

6.4 C

35 W/m

0.00 mm

15:00

6.4 C

999.5 hpa

87 %

4.8 km/h aus 117

8.0 km/h aus NE

4.4 C

5.8 C

5.8 C

6.4 C

28 W/m

0.00 mm

15:05

6.5 C

999.5 hpa

87 %

6.4 km/h aus 116

9.7 km/h aus NE

4.5 C

5.3 C

5.3 C

6.5 C

29 W/m

0.00 mm

15:10

6.5 C

999.5 hpa

87 %

4.8 km/h aus 116

16.1 km/h aus NNE

4.5 C

5.9 C

5.9 C

6.5 C

32 W/m

0.00 mm

15:15

6.5 C

999.5 hpa

87 %

8.0 km/h aus 117

16.1 km/h aus NE

4.5 C

4.9 C

4.9 C

6.5 C

26 W/m

0.00 mm

15:20

6.5 C

999.5 hpa

87 %

6.4 km/h aus 115

14.5 km/h aus NE

4.5 C

5.3 C

5.3 C

6.5 C

17 W/m

0.00 mm

15:25

6.5 C

999.5 hpa

87 %

6.4 km/h aus 115

11.3 km/h aus NE

4.5 C

5.3 C

5.3 C

6.5 C

14 W/m

0.00 mm

15:30

6.5 C

999.8 hpa

87 %

6.4 km/h aus 116

11.3 km/h aus NE

4.5 C

5.3 C

5.3 C

6.5 C

13 W/m

0.00 mm

15:35

6.5 C

999.8 hpa

87 %

4.8 km/h aus 117

11.3 km/h aus ENE

4.5 C

5.9 C

5.9 C

6.5 C

14 W/m

0.00 mm

15:40

6.5 C

999.8 hpa

87 %

4.8 km/h aus 116

9.7 km/h aus NE

4.5 C

5.9 C

5.9 C

6.5 C

14 W/m

0.00 mm

15:45

6.5 C

999.9 hpa

87 %

6.4 km/h aus 117

12.9 km/h aus NE

4.5 C

5.3 C

5.3 C

6.5 C

14 W/m

0.00 mm

15:50

6.5 C

999.9 hpa

87 %

6.4 km/h aus 113

14.5 km/h aus NNE

4.5 C

5.3 C

5.3 C

6.5 C

16 W/m

0.00 mm

15:55

6.4 C

999.9 hpa

87 %

6.4 km/h aus 115

11.3 km/h aus NNE

4.4 C

5.3 C

5.3 C

6.4 C

16 W/m

0.00 mm

16:00

6.4 C

999.8 hpa

87 %

3.2 km/h aus 117

8.0 km/h aus NE

4.4 C

6.4 C

6.4 C

6.4 C

13 W/m

0.00 mm

16:05

6.4 C

999.8 hpa

87 %

4.8 km/h aus 117

9.7 km/h aus NE

4.4 C

5.7 C

5.7 C

6.4 C

10 W/m

0.00 mm

16:10

6.3 C

999.8 hpa

88 %

4.8 km/h aus 117

9.7 km/h aus NE

4.5 C

5.7 C

5.7 C

6.3 C

7 W/m

0.00 mm

16:15

6.3 C

999.5 hpa

88 %

3.2 km/h aus 117

9.7 km/h aus NE

4.4 C

6.3 C

6.3 C

6.3 C

5 W/m

0.00 mm

16:20

6.2 C

999.5 hpa

88 %

4.8 km/h aus 115

9.7 km/h aus NE

4.4 C

5.6 C

5.6 C

6.2 C

0 W/m

0.00 mm

16:25

6.2 C

999.5 hpa

88 %

4.8 km/h aus 114

8.0 km/h aus NE

4.4 C

5.6 C

5.6 C

6.2 C

0 W/m

0.00 mm

16:30

6.1 C

999.3 hpa

88 %

1.6 km/h aus 117

8.0 km/h aus NE

4.3 C

6.1 C

6.1 C

6.1 C

0 W/m

0.00 mm

16:35

6.1 C

999.3 hpa

88 %

1.6 km/h aus 117

8.0 km/h aus N

4.2 C

6.1 C

6.1 C

6.1 C

0 W/m

0.00 mm

16:40

6.0 C

999.3 hpa

88 %

3.2 km/h aus 117

11.3 km/h aus NE

4.2 C

6.0 C

6.0 C

6.0 C

0 W/m

0.00 mm

16:45

5.9 C

999.4 hpa

88 %

3.2 km/h aus 117

9.7 km/h aus NE

4.1 C

5.9 C

5.9 C

5.9 C

0 W/m

0.00 mm

16:50

5.9 C

999.4 hpa

88 %

3.2 km/h aus 116

12.9 km/h aus NE

4.1 C

5.9 C

5.9 C

5.9 C

0 W/m

0.00 mm

16:55

5.9 C

999.4 hpa

88 %

4.8 km/h aus 114

11.3 km/h aus NNE

4.1 C

5.1 C

5.2 C

5.8 C

0 W/m

0.00 mm

17:00

5.9 C

999.4 hpa

89 %

3.2 km/h aus 116

11.3 km/h aus NE

4.2 C

5.9 C

5.9 C

5.9 C

0 W/m

0.00 mm

17:05

5.8 C

999.4 hpa

89 %

4.8 km/h aus 116

16.1 km/h aus NE

4.2 C

5.1 C

5.1 C

5.8 C

0 W/m

0.00 mm

17:10

5.8 C

999.4 hpa

89 %

3.2 km/h aus 117

9.7 km/h aus ENE

4.2 C

5.8 C

5.8 C

5.8 C

0 W/m

0.00 mm

17:15

5.8 C

999.6 hpa

89 %

4.8 km/h aus 117

11.3 km/h aus E

4.2 C

5.1 C

5.1 C

5.8 C

0 W/m

0.00 mm

17:20

5.8 C

999.6 hpa

89 %

3.2 km/h aus 117

9.7 km/h aus ENE

4.1 C

5.8 C

5.8 C

5.8 C

0 W/m

0.00 mm

17:25

5.8 C

999.6 hpa

89 %

1.6 km/h aus 114

8.0 km/h aus ENE

4.1 C

5.8 C

5.8 C

5.8 C

0 W/m

0.00 mm

17:30

5.8 C

1000.1 hpa

89 %

1.6 km/h aus 114

4.8 km/h aus ENE

4.1 C

5.8 C

5.8 C

5.8 C

0 W/m

0.00 mm

17:35

5.8 C

1000.1 hpa

90 %

1.6 km/h aus 116

6.4 km/h aus ENE

4.3 C

5.8 C

5.8 C

5.8 C

0 W/m

0.00 mm

17:40

5.8 C

1000.1 hpa

90 %

1.6 km/h aus 117

4.8 km/h aus ENE

4.3 C

5.8 C

5.8 C

5.8 C

0 W/m

0.00 mm

17:45

5.8 C

1000.1 hpa

90 %

1.6 km/h aus 117

4.8 km/h aus NE

4.3 C

5.8 C

5.8 C

5.8 C

0 W/m

0.00 mm

17:50

5.8 C

1000.1 hpa

90 %

0.0 km/h aus 116

3.2 km/h aus NE

4.3 C

5.8 C

5.8 C

5.8 C

0 W/m

0.00 mm

17:55

5.7 C

1000.1 hpa

90 %

1.6 km/h aus 114

3.2 km/h aus NE

4.2 C

5.7 C

5.7 C

5.7 C

0 W/m

0.00 mm

18:00

5.7 C

1000.3 hpa

90 %

1.6 km/h aus 112

6.4 km/h aus ENE

4.2 C

5.7 C

5.7 C

5.7 C

0 W/m

0.00 mm

18:05

5.7 C

1000.3 hpa

90 %

1.6 km/h aus 117

3.2 km/h aus ENE

4.2 C

5.7 C

5.7 C

5.7 C

0 W/m

0.00 mm

18:10

5.6 C

1000.3 hpa

90 %

3.2 km/h aus 116

4.8 km/h aus ENE

4.1 C

5.6 C

5.6 C

5.6 C

0 W/m

0.00 mm

18:15

5.6 C

1000.5 hpa

90 %

3.2 km/h aus 117

8.0 km/h aus ENE

4.0 C

5.6 C

5.6 C

5.6 C

0 W/m

0.00 mm

18:20

5.6 C

1000.5 hpa

90 %

4.8 km/h aus 117

8.0 km/h aus ENE

4.0 C

4.8 C

4.8 C

5.6 C

0 W/m

0.00 mm

18:25

5.6 C

1000.5 hpa

90 %

3.2 km/h aus 116

8.0 km/h aus ENE

4.0 C

5.6 C

5.6 C

5.6 C

0 W/m

0.00 mm

18:30

5.6 C

1000.5 hpa

90 %

3.2 km/h aus 113

4.8 km/h aus ENE

4.0 C

5.6 C

5.6 C

5.6 C

0 W/m

0.00 mm

18:35

5.6 C

1000.5 hpa

90 %

1.6 km/h aus 116

4.8 km/h aus ENE

4.0 C

5.6 C

5.6 C

5.6 C

0 W/m

0.00 mm

18:40

5.5 C

1000.5 hpa

90 %

3.2 km/h aus 116

6.4 km/h aus ENE

4.0 C

5.5 C

5.5 C

5.5 C

0 W/m

0.00 mm

18:45

5.5 C

1001.0 hpa

90 %

1.6 km/h aus 115

4.8 km/h aus ENE

4.0 C

5.5 C

5.5 C

5.5 C

0 W/m

0.00 mm

18:50

5.4 C

1001.0 hpa

90 %

0.0 km/h aus 117

1.6 km/h aus ENE

3.9 C

5.4 C

5.4 C

5.4 C

0 W/m

0.00 mm

18:55

5.3 C

1001.0 hpa

90 %

0.0 km/h aus 116

1.6 km/h aus ENE

3.8 C

5.3 C

5.3 C

5.3 C

0 W/m

0.00 mm

19:00

5.3 C

1001.0 hpa

90 %

0.0 km/h aus 114

1.6 km/h aus ENE

3.8 C

5.3 C

5.3 C

5.3 C

0 W/m

0.00 mm

19:05

5.2 C

1001.0 hpa

90 %

0.0 km/h aus 115

1.6 km/h aus ENE

3.7 C

5.1 C

5.2 C

5.1 C

0 W/m

0.00 mm

19:10

5.1 C

1001.0 hpa

90 %

0.0 km/h aus 117

0.0 km/h aus ---

3.6 C

5.0 C

5.1 C

5.0 C

0 W/m

0.00 mm

19:15

4.9 C

1001.0 hpa

90 %

0.0 km/h aus 117

0.0 km/h aus ---

3.4 C

4.9 C

4.9 C

4.9 C

0 W/m

0.00 mm

19:20

4.8 C

1001.0 hpa

89 %

0.0 km/h aus 117

1.6 km/h aus ENE

3.2 C

4.8 C

4.8 C

4.8 C

0 W/m

0.00 mm

19:25

4.7 C

1001.0 hpa

89 %

0.0 km/h aus 117

3.2 km/h aus ENE

3.1 C

4.7 C

4.7 C

4.7 C

0 W/m

0.00 mm

19:30

4.6 C

1001.1 hpa

89 %

1.6 km/h aus 117

6.4 km/h aus E

3.0 C

4.6 C

4.6 C

4.6 C

0 W/m

0.00 mm

19:35

4.5 C

1001.1 hpa

89 %

3.2 km/h aus 114

6.4 km/h aus E

2.8 C

4.3 C

4.4 C

4.4 C

0 W/m

0.00 mm

19:40

4.4 C

1001.1 hpa

90 %

3.2 km/h aus 113

4.8 km/h aus E

2.9 C

4.3 C

4.3 C

4.4 C

0 W/m

0.00 mm

19:45

4.4 C

1000.9 hpa

90 %

1.6 km/h aus 117

4.8 km/h aus E

2.9 C

4.4 C

4.4 C

4.4 C

0 W/m

0.00 mm

19:50

4.4 C

1000.9 hpa

90 %

1.6 km/h aus 117

3.2 km/h aus E

2.9 C

4.4 C

4.4 C

4.4 C

0 W/m

0.00 mm

19:55

4.4 C

1000.9 hpa

90 %

1.6 km/h aus 117

3.2 km/h aus E

2.9 C

4.3 C

4.4 C

4.3 C

0 W/m

0.00 mm

20:00

4.4 C

1000.9 hpa

90 %

0.0 km/h aus 116

3.2 km/h aus E

2.9 C

4.3 C

4.4 C

4.3 C

0 W/m

0.00 mm

20:05

4.3 C

1000.9 hpa

90 %

1.6 km/h aus 114

4.8 km/h aus E

2.8 C

4.3 C

4.3 C

4.3 C

0 W/m

0.00 mm

20:10

4.3 C

1000.9 hpa

90 %

3.2 km/h aus 114

9.7 km/h aus ESE

2.8 C

4.1 C

4.2 C

4.3 C

0 W/m

0.00 mm

20:15

4.3 C

1000.7 hpa

90 %

3.2 km/h aus 115

6.4 km/h aus ESE

2.8 C

4.1 C

4.2 C

4.3 C

0 W/m

0.00 mm

20:20

4.3 C

1000.7 hpa

90 %

3.2 km/h aus 116

4.8 km/h aus E

2.8 C

4.1 C

4.2 C

4.3 C

0 W/m

0.00 mm

20:25

4.3 C

1000.7 hpa

91 %

4.8 km/h aus 117

6.4 km/h aus N

3.0 C

3.3 C

3.4 C

4.3 C

0 W/m

0.00 mm

20:30

4.3 C

1000.5 hpa

91 %

1.6 km/h aus 117

4.8 km/h aus NNW

3.0 C

4.3 C

4.3 C

4.3 C

0 W/m

0.00 mm

20:35

4.3 C

1000.5 hpa

91 %

4.8 km/h aus 116

8.0 km/h aus ESE

3.0 C

3.3 C

3.4 C

4.3 C

0 W/m

0.00 mm

20:40

4.3 C

1000.5 hpa

91 %

3.2 km/h aus 117

4.8 km/h aus ESE

2.9 C

4.1 C

4.1 C

4.2 C

0 W/m

0.00 mm

20:45

4.2 C

1001.0 hpa

91 %

6.4 km/h aus 114

8.0 km/h aus ESE

2.9 C

2.7 C

2.7 C

4.2 C

0 W/m

0.00 mm

20:50

4.1 C

1001.0 hpa

91 %

4.8 km/h aus 115

9.7 km/h aus ESE

2.8 C

3.1 C

3.2 C

4.1 C

0 W/m

0.00 mm

20:55

4.1 C

1001.0 hpa

91 %

1.6 km/h aus 117

4.8 km/h aus ESE

2.7 C

4.0 C

4.1 C

4.0 C

0 W/m

0.00 mm

21:00

4.0 C

1000.6 hpa

91 %

0.0 km/h aus 117

0.0 km/h aus ---

2.7 C

3.9 C

4.0 C

3.9 C

0 W/m

0.00 mm

21:05

4.0 C

1000.6 hpa

91 %

0.0 km/h aus 116

0.0 km/h aus ---

2.7 C

3.9 C

4.0 C

3.9 C

0 W/m

0.00 mm

21:10

3.9 C

1000.6 hpa

91 %

0.0 km/h aus 117

0.0 km/h aus ---

2.6 C

3.9 C

3.9 C

3.9 C

0 W/m

0.00 mm

21:15

3.9 C

1000.5 hpa

91 %

1.6 km/h aus 115

3.2 km/h aus ESE

2.6 C

3.8 C

3.9 C

3.8 C

0 W/m

0.00 mm

21:20

3.8 C

1000.5 hpa

91 %

1.6 km/h aus 115

3.2 km/h aus ESE

2.5 C

3.8 C

3.8 C

3.8 C

0 W/m

0.00 mm

21:25

3.8 C

1000.5 hpa

91 %

0.0 km/h aus 113

1.6 km/h aus ESE

2.4 C

3.7 C

3.8 C

3.7 C

0 W/m

0.00 mm

21:30

3.7 C

1001.0 hpa

91 %

0.0 km/h aus 117

1.6 km/h aus ESE

2.4 C

3.7 C

3.7 C

3.7 C

0 W/m

0.00 mm

21:35

3.7 C

1001.0 hpa

91 %

0.0 km/h aus 117

0.0 km/h aus ---

2.3 C

3.6 C

3.7 C

3.6 C

0 W/m

0.00 mm

21:40

3.6 C

1001.0 hpa

91 %

1.6 km/h aus 117

3.2 km/h aus ESE

2.2 C

3.5 C

3.6 C

3.5 C

0 W/m

0.00 mm

21:45

3.5 C

1001.5 hpa

91 %

3.2 km/h aus 117

4.8 km/h aus ESE

2.2 C

3.2 C

3.3 C

3.4 C

0 W/m

0.00 mm

21:50

3.4 C

1001.5 hpa

91 %

3.2 km/h aus 117

6.4 km/h aus ESE

2.1 C

3.2 C

3.2 C

3.4 C

0 W/m

0.00 mm

21:55

3.4 C

1001.5 hpa

91 %

1.6 km/h aus 114

4.8 km/h aus ESE

2.1 C

3.3 C

3.4 C

3.3 C

0 W/m

0.00 mm

22:00

3.3 C

1001.9 hpa

91 %

0.0 km/h aus 114

3.2 km/h aus ESE

2.0 C

3.3 C

3.3 C

3.3 C

0 W/m

0.00 mm

22:05

3.3 C

1001.9 hpa

91 %

1.6 km/h aus 116

3.2 km/h aus ESE

2.0 C

3.3 C

3.3 C

3.3 C

0 W/m

0.00 mm

22:10

3.4 C

1001.9 hpa

91 %

0.0 km/h aus 117

3.2 km/h aus ESE

2.1 C

3.3 C

3.4 C

3.3 C

0 W/m

0.00 mm

22:15

3.4 C

1001.5 hpa

92 %

1.6 km/h aus 117

3.2 km/h aus ESE

2.3 C

3.4 C

3.4 C

3.4 C

0 W/m

0.00 mm

22:20

3.4 C

1001.5 hpa

92 %

0.0 km/h aus 117

1.6 km/h aus ESE

2.3 C

3.4 C

3.4 C

3.4 C

0 W/m

0.00 mm

22:25

3.4 C

1001.5 hpa

92 %

0.0 km/h aus 118

1.6 km/h aus ESE

2.3 C

3.4 C

3.4 C

3.4 C

0 W/m

0.00 mm

22:30

3.4 C

1001.5 hpa

92 %

0.0 km/h aus 114

0.0 km/h aus ---

2.3 C

3.4 C

3.4 C

3.4 C

0 W/m

0.00 mm

22:35

3.4 C

1001.5 hpa

92 %

0.0 km/h aus 113

0.0 km/h aus ---

2.2 C

3.3 C

3.4 C

3.3 C

0 W/m

0.00 mm

22:40

3.4 C

1001.5 hpa

92 %

0.0 km/h aus 117

0.0 km/h aus ---

2.2 C

3.3 C

3.4 C

3.3 C

0 W/m

0.00 mm

22:45

3.4 C

1001.6 hpa

92 %

1.6 km/h aus 117

3.2 km/h aus ESE

2.2 C

3.3 C

3.4 C

3.3 C

0 W/m

0.00 mm

22:50

3.3 C

1001.6 hpa

92 %

0.0 km/h aus 117

0.0 km/h aus ---

2.2 C

3.3 C

3.3 C

3.3 C

0 W/m

0.00 mm

22:55

3.3 C

1001.6 hpa

92 %

0.0 km/h aus 115

0.0 km/h aus ---

2.2 C

3.3 C

3.3 C

3.3 C

0 W/m

0.00 mm

23:00

3.3 C

1001.5 hpa

92 %

1.6 km/h aus 117

3.2 km/h aus ESE

2.1 C

3.2 C

3.3 C

3.2 C

0 W/m

0.00 mm

23:05

3.3 C

1001.5 hpa

92 %

3.2 km/h aus 114

4.8 km/h aus ESE

2.1 C

3.0 C

3.1 C

3.2 C

0 W/m

0.00 mm

23:10

3.4 C

1001.5 hpa

92 %

3.2 km/h aus 114

6.4 km/h aus N

2.2 C

3.1 C

3.2 C

3.3 C

0 W/m

0.00 mm

23:15

3.4 C

1001.4 hpa

92 %

1.6 km/h aus 115

4.8 km/h aus N

2.3 C

3.4 C

3.4 C

3.4 C

0 W/m

0.00 mm

23:20

3.6 C

1001.4 hpa

92 %

1.6 km/h aus 116

3.2 km/h aus N

2.4 C

3.5 C

3.6 C

3.5 C

0 W/m

0.00 mm

23:25

3.6 C

1001.4 hpa

92 %

0.0 km/h aus 117

3.2 km/h aus N

2.4 C

3.6 C

3.6 C

3.6 C

0 W/m

0.00 mm

23:30

3.6 C

1001.2 hpa

93 %

1.6 km/h aus 118

3.2 km/h aus N

2.6 C

3.6 C

3.6 C

3.6 C

0 W/m

0.00 mm

23:35

3.7 C

1001.2 hpa

93 %

0.0 km/h aus 117

1.6 km/h aus N

2.6 C

3.7 C

3.7 C

3.7 C

0 W/m

0.00 mm

23:40

3.7 C

1001.2 hpa

93 %

0.0 km/h aus 115

0.0 km/h aus ---

2.6 C

3.7 C

3.7 C

3.7 C

0 W/m

0.00 mm

23:45

3.6 C

1001.0 hpa

92 %

0.0 km/h aus 114

0.0 km/h aus ---

2.4 C

3.6 C

3.6 C

3.6 C

0 W/m

0.00 mm

23:50

3.6 C

1001.0 hpa

93 %

0.0 km/h aus 117

0.0 km/h aus ---

2.6 C

3.6 C

3.6 C

3.6 C

0 W/m

0.00 mm

23:55

3.6 C

1001.0 hpa

92 %

0.0 km/h aus 117

4.8 km/h aus N

2.4 C

3.6 C

3.6 C

3.6 C

0 W/m

0.00 mm